Regional Weather Roundup
Issued by NWS

Home | Current Version | Previous Version | Graphics & Text | Print | Product List | Glossary Off
Versions: 1 2 3 4 5 6 7 8 9 10 11 12 13 14 15 16 17 18 19 20 21 22 23 24 25 26 27 28 29 30 31 32 33 34 35 36 37 38 39 40 41 42 43 44 45 46 47 48 49 50

000
ASUS43 KTOP 291808
RWRKS

WEATHER ROUNDUP FOR KANSAS
NATIONAL WEATHER SERVICE GOODLAND KS
100 PM CDT WED OCT 29 2014

NOTE:  "FAIR" INDICATES FEW OR NO CLOUDS BELOW 12,000 FEET WITH NO
SIGNIFICANT WEATHER AND/OR OBSTRUCTIONS TO VISIBILITY.

KSZ001>006-013>018-027>032-041>047-291900-
NORTHWEST KANSAS

CITY           SKY/WX    TMP DP  RH WIND       PRES   REMARKS
GOODLAND       SUNNY     67  23  19 VRB5      30.13F
6HR MIN TEMP:  26; 6HR MAX TEMP:  67;

HAYS           FAIR      64  37  36 S15       30.16F
HILL CITY      FAIR      63  34  33 S8        30.14F
6HR MIN TEMP:  27; 6HR MAX TEMP:  64;

RUSSELL        FAIR      65  35  33 S13       30.16F
6HR MIN TEMP:  33; 6HR MAX TEMP:  65;

$$

KSZ061>065-074>080-084>089-291900-
SOUTHWEST KANSAS

CITY           SKY/WX    TMP DP  RH WIND       PRES   REMARKS
DODGE CITY     FAIR      68  34  28 S20G28    30.18F
6HR MIN TEMP:  33; 6HR MAX TEMP:  68;

ELKHART          N/A     65  40  40 SW9         N/A
GARDEN CITY    FAIR      66  38  35 SW16G25   30.16F
6HR MIN TEMP:  32; 6HR MAX TEMP:  67;

GREAT BEND     FAIR      64  37  36 SW12      30.18F
LIBERAL        FAIR      66  37  34 S20       30.20F
PRATT          FAIR      64  36  34 SW9       30.21F
$$

KSZ066>073-081>083-090>101-291900-
SOUTHEAST KANSAS

CITY           SKY/WX    TMP DP  RH WIND       PRES   REMARKS
CHANUTE        FAIR      61  38  42 S6        30.24F
6HR MIN TEMP:  38; 6HR MAX TEMP:  61;

COFFEYVILLE    FAIR      65  38  36 VRB5      30.24F
6HR MIN TEMP:  37; 6HR MAX TEMP:  65;

HUTCHINSON     FAIR      67  32  27 S8        30.21F
6HR MIN TEMP:  32; 6HR MAX TEMP:  67;

MEDICINE LODGE   N/A     68  32  26 SW12      30.20F
NEWTON         FAIR      64  32  29 S7        30.24F
PARSONS        FAIR      64  38  38 CALM      30.25F
6HR MIN TEMP:  34; 6HR MAX TEMP:  64;

WICHITA INTL   FAIR      68  32  26 S9        30.21F
6HR MIN TEMP:  35; 6HR MAX TEMP:  68; 6HR PCP: TRACE;

WICHITA JABRA  FAIR      66  32  28 S8        30.21F
6HR MIN TEMP:  39; 6HR MAX TEMP:  66;

WICHITA MCCONL FAIR      67  31  25 S5        30.21F
WINFIELD       FAIR      67  40  37 VRB6      30.23F
6HR MIN TEMP:  37; 6HR MAX TEMP:  67;

$$

KSZ007>012-019>026-033>040-048>060-102>105-291900-
NORTHEAST KANSAS

CITY           SKY/WX    TMP DP  RH WIND       PRES   REMARKS
CONCORDIA      FAIR      58  33  39 SE10G17   30.20F
6HR MIN TEMP:  31; 6HR MAX TEMP:  58;

EMPORIA        FAIR      59  35  40 E7        30.23F
6HR MIN TEMP:  36; 6HR MAX TEMP:  59;

LAWRENCE       FAIR      57  34  41 CALM      30.24F
6HR MIN TEMP:  31; 6HR MAX TEMP:  58;

MANHATTAN      FAIR      58  33  39 E5        30.22F
6HR MIN TEMP:  29; 6HR MAX TEMP:  58;

MARYSVILLE     FAIR      54  34  47 SE7       30.21F
OLATHE IND     FAIR      56  33  42 NW5       30.25F
6HR MIN TEMP:  34; 6HR MAX TEMP:  56;

OLATHE EXE     FAIR      57  32  38 CALM      30.23F
6HR MIN TEMP:  41; 6HR MAX TEMP:  57;

SALINA         FAIR      63  34  33 SE10      30.21F
6HR MIN TEMP:  36; 6HR MAX TEMP:  63;

TOPEKA BILLARD FAIR      57  33  40 CALM      30.24F
6HR MIN TEMP:  32; 6HR MAX TEMP:  58;

TOPEKA FORBES  FAIR      58  33  39 NE5       30.23F
6HR MIN TEMP:  33; 6HR MAX TEMP:  58;

$$



USA.gov is the U.S. government's official web portal to all federal, state and local government web resources and services.